Regional Weather Roundup
Issued by NWS

Home | Current Version | Previous Version | Text Only | Print | Product List | Glossary Off
Versions: 1 2 3 4 5 6 7 8 9 10 11 12 13 14 15 16 17 18 19 20 21 22 23 24 25 26 27 28 29 30 31 32 33 34 35 36 37 38 39 40 41 42 43 44 45 46 47 48 49 50

000
ASUS43 KFSD 220510
RWRSD

WEATHER ROUNDUP FOR SOUTH DAKOTA
NATIONAL WEATHER SERVICE SIOUX FALLS SD
1100 PM CST TUE FEB 21 2017

NOTE: "FAIR" INDICATES FEW OR NO CLOUDS BELOW 12,000 FEET WITH NO
SIGNIFICANT WEATHER AND/OR OBSTRUCTIONS TO VISIBILITY.


SDZ001>005-009-010-012>017-220600-
NORTHWEST AND NORTH CENTRAL SOUTH DAKOTA

CITY           SKY/WX    TMP DP  RH WIND       PRES   REMARKS
BUFFALO          N/A     41  36  82 S7        29.61F
FAITH            N/A     43  37  79 NE8       29.68F
MOBRIDGE       MOCLDY    44  34  67 SE7       29.64F
$$

SDZ012>016-024>037-041>051-057-063-072>074-220600-
SOUTHWEST AND SOUTH CENTRAL SOUTH DAKOTA

CITY           SKY/WX    TMP DP  RH WIND       PRES   REMARKS
RAPID CTY ARPT CLOUDY    50  36  58 SW9       29.72F
PIERRE         CLEAR     49  37  63 NW12      29.63F
CUSTER         LGT RAIN  40  36  86 W6        29.78F
ELLSWORTH AFB  CLOUDY    52  36  55 SW13      29.71F
PHILIP         MOCLDY    52  37  56 VRB5      29.68F
PINE RIDGE     CLEAR     50  31  48 NW6       29.77R
SPEARFISH      MOCLDY    50  34  53 SW16G23   29.70F
WINNER         FAIR      59  32  36 W15G25    29.68R
$$

SDZ004>011-016>023-039-040-220600-
NORTHEAST SOUTH DAKOTA

CITY           SKY/WX    TMP DP  RH WIND       PRES   REMARKS
ABERDEEN       MOCLDY    42  35  76 N9        29.67R
WATERTOWN      CLOUDY    49  37  63 E3        29.61F
BROOKINGS      LGT RAIN  47  40  76 E10       29.66S
SISSETON         N/A     39  37  92 N13       29.69R
$$

SDZ017-020-022-023-036>040-048>070-220600-
SOUTHEAST SOUTH DAKOTA

CITY           SKY/WX    TMP DP  RH WIND       PRES   REMARKS
SIOUX FALLS    PTCLDY    42  37  82 CALM      29.65F
HURON          PTCLDY    50  40  68 SE12      29.59F
CHAMBERLAIN    CLEAR     53  35  50 W10       29.66R
MITCHELL       CLEAR     52  39  61 S9        29.62F
YANKTON        PTCLDY    54  36  50 SW9       29.65F
$$

ABBREVIATIONS USED IN REMARKS
   TC - TEMPERATURE IN CELSIUS
  WCI - WIND CHILL INDEX
   HX - HEAT INDEX
  VSB - VISIBILITY




USA.gov is the U.S. government's official web portal to all federal, state and local government web resources and services.